Location: breval
(48.9474°N, 1.5319°E)
Time: 22:29:46
(UTC+00:00)

ISS - Visible Passes

Search period start: 21 May 2018 00:00
Search period end: 31 May 2018 00:00
Orbit: 402 x 407 km, 51.6° (Epoch: 22 May)

Date Brightness Start Highest point End Pass type
(mag) Time Alt. Az. Time Alt. Az. Time Alt. Az.
21 May -3.0 00:20:31 10° WNW 00:23:43 50° N 00:26:55 10° E visible
21 May -4.0 01:57:06 10° WNW 02:00:23 86° SSW 02:03:40 10° ESE visible
21 May -2.1 20:16:47 10° S 20:18:49 16° SE 20:20:51 10° E visible
21 May -4.0 21:51:35 10° WSW 21:54:51 72° SSE 21:58:07 10° ENE visible
21 May -3.0 23:28:15 10° W 23:31:27 51° N 23:34:40 10° ENE visible
22 May -3.6 01:04:55 10° WNW 01:08:11 71° NNE 01:11:27 10° E visible
22 May -3.1 02:41:34 10° W 02:44:31 31° SW 02:47:26 10° SSE visible
22 May -3.6 20:59:34 10° SW 21:02:43 46° SSE 21:05:53 10° ENE visible
22 May -3.2 22:35:57 10° W 22:39:11 58° N 22:42:26 10° ENE visible
23 May -3.2 00:12:42 10° WNW 00:15:56 57° N 00:19:10 10° E visible
23 May -3.7 01:49:15 10° WNW 01:52:26 49° SSW 01:55:36 10° SE visible
23 May -3.6 21:43:40 10° WSW 21:46:56 73° NNW 21:50:13 10° ENE visible
23 May -3.0 23:20:27 10° WNW 23:23:39 51° N 23:26:52 10° E visible
24 May -4.0 00:57:00 10° WNW 01:00:17 75° SSW 01:00:17 75° SSW visible
24 May-0.702:40:47SSE02:40:47SSE02:32:44Wvisible
24 May -3.9 20:51:26 10° WSW 20:54:42 82° SSE 20:57:59 10° ENE visible
24 May -2.9 22:28:08 10° W 22:31:21 50° N 22:34:33 10° ENE visible
25 May -3.8 00:04:46 10° WNW 00:08:03 78° NNE 00:08:15 73° ENE visible
25 May -3.1 21:35:49 10° W 21:39:02 55° N 21:42:16 10° ENE visible
25 May -3.4 23:12:32 10° WNW 23:15:47 61° NNE 23:17:10 30° E visible
26 May -1.5 00:49:06 10° WNW 00:49:47 15° W 00:49:47 15° W visible
26 May -3.4 20:43:28 10° W 20:46:44 67° NNW 20:50:00 10° ENE visible
26 May -3.1 22:20:15 10° WNW 22:23:29 52° N 22:26:19 13° E visible
26 May -2.8 23:56:48 10° WNW 23:58:56 36° W 23:58:56 36° W visible
27 May -2.9 21:27:55 10° WNW 21:31:08 50° N 21:34:20 10° ENE visible
27 May -3.9 23:04:32 10° WNW 23:07:48 87° NNE 23:08:11 68° ESE visible
28 May -3.0 20:35:33 10° W 20:38:47 53° N 20:42:00 10° ENE visible
28 May -3.5 22:12:15 10° WNW 22:15:31 66° NNE 22:17:29 22° E visible
28 May -1.9 23:48:51 10° W 23:50:06 20° W 23:50:06 20° W visible
29 May -3.2 21:19:56 10° WNW 21:23:11 55° N 21:26:24 10° E visible
29 May -3.6 22:56:29 10° WNW 22:59:26 54° SW 22:59:26 54° SW visible
30 May -2.9 20:27:35 10° WNW 20:30:48 50° N 20:34:00 10° E visible
30 May -4.0 22:04:09 10° WNW 22:07:26 84° SSW 22:08:49 32° ESE visible
30 May -1.2 23:41:09 10° W 23:41:26 11° W 23:41:26 11° W visible
